Retour au catalogue

COSMOS 2500

GLONASS

ActifNavigationMEO
NORAD 40001·PAYLOAD·🇷🇺 Russia

Lancé Jun 14, 2014 depuis Plesetsk Cosmodrome

Loading…

Prochains Passages (prochaines 24 heures)

TLE

FraisSource: CelesTrak SupGP

Époque: Sep 8, 2026, 23:59 UTC

1 40001C 14032A   26251.99979167  .00000000  00000+0  00000+0 0  2517
2 40001  65.1788 310.8246 0009531 204.2730 128.7433  2.13105753    18

Suivez COSMOS 2500 en temps réel avec AllMySat

Download on the App Store